OSCAR 3 1 01293U 65016F 10210.66620057 .00000111 00000-0 10267-3 0 8585 2 01293 070.0745 010.7148 0018721 341.6933 018.3472 14.04801239317030 OSCAR 5 1 04321U 70008B 10210.59637801 -.00000031 +00000-0 +10000-3 0 03531 2 04321 102.1078 234.1355 0027641 289.7821 070.0273 12.52159883851750 OSCAR 6 1 06236U 72082B 10210.88888832 -.00000027 +00000-0 +10000-3 0 03430 2 06236 101.3911 212.7298 0003886 166.8979 193.2192 12.53081968728475 OSCAR 7 1 07530U 74089B 10210.57978355 -.00000027 +00000-0 +10000-3 0 08416 2 07530 101.4004 224.8007 0011677 190.1584 169.9254 12.53578981633760 OSCAR 8 1 10703U 78026B 10210.61585959 +.00000129 +00000-0 +11843-3 0 08975 2 10703 098.7763 244.6312 0007019 109.3924 250.7990 13.98873830652982 OSCAR 10 1 14129U 83058B 10210.65599775 -.00000066 +00000-0 +10000-3 0 07566 2 14129 026.4963 082.4894 6055384 345.2596 003.0414 02.05869651176041 OSCAR 11 (UoSAT 2) 1 14781U 84021B 10210.68870069 -.00000148 +00000-0 -12584-4 0 03010 2 14781 098.0526 262.5531 0010239 100.2921 259.9425 14.79818522418092 OSCAR 16 (PACSAT) 1 20439U 90005D 10210.67548761 +.00000009 +00000-0 +18812-4 0 09577 2 20439 098.3345 166.9156 0011784 043.9432 316.2683 14.31868264071462 OSCAR 17 (DOVE) 1 20440U 90005E 10211.49804204 .00000008 00000-0 18388-4 0 6751 2 20440 098.3089 171.4142 0011704 035.6307 324.5649 14.32174448 71735 OSCAR 18 (WEBERSAT) 1 20441U 90005F 10210.45061613 -.00000012 +00000-0 +10862-4 0 01824 2 20441 098.3161 169.2754 0012422 042.5894 317.6246 14.31935733071509 OSCAR 19 (LUSAT) 1 20442U 90005G 10210.45678735 -.00000032 +00000-0 +34446-5 0 08671 2 20442 098.2955 172.3367 0012709 038.8695 321.3386 14.32098552071608 JAS 1B (FUJI 2) 1 20480U 90013C 10210.59318549 .00000007 00000-0 94447-4 0 5215 2 20480 099.0263 059.9973 0540066 327.9168 029.0093 12.83365246959167 COSMOS 2123 1 21089U 91007A 10210.55119076 +.00000011 +00000-0 -40955-5 0 05341 2 21089 082.9253 324.3111 0027691 275.8128 083.9857 13.74494533977156 OSCAR 22 (UoSAT 5) 1 21575U 91050B 10210.72628463 -.00000008 00000-0 11566-4 0 8954 2 21575 098.4955 160.1619 0006657 234.4821 125.5741 14.39726457999341 OSCAR 23 (KITSAT 1) 1 22077U 92052B 10210.42601093 -.00000037 +00000-0 +10000-3 0 00429 2 22077 066.0825 193.7429 0002471 175.5527 184.5512 12.86453734843901 KITSAT B 1 22825U 93061C 10210.78576810 .00000021 00000-0 25200-4 0 5895 2 22825 098.4872 157.6391 0009151 139.3693 220.8175 14.29303094878138 POSAT 1 1 22826U 93061D 10210.77360921 -.00000010 +00000-0 +12631-4 0 03283 2 22826 098.4816 158.2126 0009514 134.2326 225.9638 14.29559525878244 ITAMSAT 1 22828U 93061F 10210.86324169 -.00000037 00000-0 20305-5 0 5244 2 22828 098.4744 158.1083 0010892 110.6957 249.5391 14.29853428846541 EYESAT A 1 22829U 93061G 10210.87332500 +.00000086 +00000-0 +49712-4 0 05452 2 22829 098.4714 159.2934 0010814 106.5367 253.7002 14.30253806878579 RADIO ROSTO 1 23439U 94085A 10210.78289955 -.00000039 +00000-0 +10000-3 0 03175 2 23439 064.8207 325.6696 0160726 336.5932 022.7732 11.27553995642079 JAS 2 1 24278U 96046B 10210.92270926 -.00000021 +00000-0 +14125-4 0 03668 2 24278 098.5141 034.1429 0351094 013.1444 347.8563 13.52951876688886 TMSAT 1 25396U 98043C 10210.87536800 +.00000006 +00000-0 +20210-4 0 07601 2 25396 098.3077 221.9804 0003462 108.0421 252.1134 14.23808532626310 TECHSAT 1B 1 25397U 98043D 10210.56534532 -.00000062 +00000-0 -95457-5 0 02489 2 25397 098.3127 215.6830 0002106 118.4957 241.6424 14.23181520626078 SEDSAT 1 1 25509U 98061B 10210.54434519 +.00000146 +00000-0 +15695-4 0 07634 2 25509 031.4348 268.9928 0354182 300.2060 056.3942 14.28317570614114 PAN SAT 1 25520U 98064B 10210.82234405 +.00000573 +00000-0 +18135-4 0 05480 2 25520 028.4590 044.6757 0005214 073.7022 286.4124 15.17615625650636 ISS (ZARYA) 1 25544U 98067A 10210.92591274 -.00001493 +00000-0 -67516-5 0 06089 2 25544 051.6445 011.8696 0007899 162.0873 335.0863 15.71304437670194 OSCAR 36 (UOSAT 12) 1 25693U 99021A 10210.79332413 -.00000069 00000-0 10314-4 0 2646 2 25693 064.5602 303.5402 0039220 305.0787 054.6640 14.78809845608118 OPAL 1 26063U 00004C 10210.64948187 -.00000016 +00000-0 +14631-4 0 08639 2 26063 100.2129 077.2005 0036884 193.9037 166.1134 14.35901477550425 SAUDISAT 1A 1 26545U 00057A 10210.63083025 +.00000082 +00000-0 +29496-4 0 05928 2 26545 064.5593 301.9767 0038626 214.1886 145.6679 14.80713700531529 TIUNGSAT 1 1 26548U 00057D 10210.63334963 +.00000169 +00000-0 +38423-4 0 07570 2 26548 064.5550 259.5052 0031142 216.7409 143.1581 14.83526112532398 SAUDISAT 1B 1 26549U 00057E 10210.90879973 -.00000022 +00000-0 +16477-4 0 06850 2 26549 064.5591 320.0185 0043401 214.4903 145.3388 14.79564647531185 AMSAT OSCAR 40 1 26609U 00072B 10194.31581569 -.00000284 00000-0 10000-3 0 4056 2 26609 009.6457 323.0488 7973316 329.4554 002.0955 01.25584082 44545 PCSAT 1 26931U 01043C 10210.67002144 +.00000180 +00000-0 +10255-3 0 05213 2 26931 067.0524 094.5228 0005167 266.0963 093.9540 14.29605916460821 SAPPHIRE 1 26932U 01043D 10210.69068773 .00000165 00000-0 96517-4 0 5259 2 26932 067.0568 094.5537 0004506 245.5886 114.4751 14.29643146460870 RUBIN 2 1 27605U 02058A 10210.51224256 -.00000012 +00000-0 +19469-4 0 02479 2 27605 064.5552 213.1837 0035748 058.2559 302.2034 14.72480138408919 SAUDISAT 1C 1 27607U 02058C 10210.55081227 -.00000010 +00000-0 +20117-4 0 02328 2 27607 064.5559 227.8418 0036796 057.2562 303.2078 14.71557509408614 MOZHAYETS 4 1 27939U 03042A 10211.67778822 .00000060 00000-0 20315-4 0 4087 2 27939 097.8863 075.3062 0012487 284.6030 075.3775 14.63437373365314 AMSAT ECHO 1 28375U 04025K 10210.93097433 +.00000007 +00000-0 +15089-4 0 07372 2 28375 098.0643 201.9973 0084304 328.4660 031.1494 14.40692191319660 HAMSAT 1 28650U 05017B 10210.81125342 +.00000137 +00000-0 +23719-4 0 05650 2 28650 097.6894 262.5771 0027898 135.3287 225.0159 14.81778776283002 SSETI-EXPRESS 1 28894U 05043E 10210.72162586 .00000052 00000-0 20318-4 0 8280 2 28894 098.0043 093.1728 0017823 150.6987 209.5215 14.59741807253307 MOZ.5/SAFIR/RUBIN 5/SL-8 1 28898U 05043G 10210.77685864 +.00000094 +00000-0 +29737-4 0 06657 2 28898 097.9869 088.4914 0019084 163.4704 196.7155 14.58622261253119 SUITSAT (Decayed 2006-09-07) 1 28933U 05035C 06250.56263144 .13300754 00000-0 18638-3 0 4012 2 28933 051.6150 101.2534 0006572 313.0977 047.0289 16.48585101 34276 CUTE 1.7 (Decayed 2009-10-25) 1 28941U 06005C 09297.68475575 .14491492 29743-5 25760-3 0 5565 2 28941 098.0955 138.9518 0011688 319.8691 040.7485 16.46998778207909 HITSAT (Decayed 2008-06-18) 1 29484U 06041F 08170.27591928 .21901596 31637-5 19690-3 0 4662 2 29484 098.2496 292.5583 0013872 275.6258 084.5236 16.51113477 98738 RAFT (Decayed 2007-05-30) 1 29661U 06055C 07150.05824307 .13324117 12618-4 10400-3 0 3000 2 29661 051.6186 176.5045 0007204 190.7749 188.7342 16.52052832 25544 MARSCOM (Decayed 2007-05-06) 1 29662U 06055D 07126.39603970 .07031946 12599-4 11450-3 0 2632 2 29662 051.6121 302.3682 0004459 252.1654 110.7411 16.47981436 21652 ANDE MAA SPHERE 1 (Decayed 2007-12-25) 1 29664U 06055F 07359.16654419 .14620719 12705-4 12723-3 0 7381 2 29664 051.6179 150.0690 0003189 248.8461 111.8136 16.51627846 58777 ANDE FCAL SPHERE 2 (Decayed 2008-05-25) 1 29667U 06055J 08146.34060426 .11864717 12752-4 73624-4 0 9790 2 29667 051.6107 065.3702 0009039 260.8350 099.5042 16.53464210 82911 PEHUENSAT 1 1 29712U 07001D 10210.67023241 .00000892 00000-0 12109-3 0 2907 2 29712 097.7799 261.2315 0014871 032.4600 327.7504 14.81178588191771 DELFI C3 1 32789U 08021G 10210.71099516 +.00000623 +00000-0 +84571-4 0 07484 2 32789 097.8986 275.5382 0016391 143.1075 217.1257 14.82227995121807 YUBILEINY 1 32953U 08025A 10211.51305751 .00000010 00000-0 00000+0 0 9124 2 32953 082.5015 002.7302 0019075 011.4196 348.7311 12.43006929 99127 PRISM (HITOMI) 1 33493U 09002B 10211.76399910 .00000434 00000-0 62861-4 0 7099 2 33493 098.0903 331.6381 0020175 004.3756 355.7641 14.81045897 81937 STARS (KUKAI) 1 33498U 09002G 10210.74701098 .00000272 00000-0 51822-4 0 1667 2 33498 098.0631 320.9476 0014119 104.8391 255.4408 14.71514968 81248 KKS-1 (KISEKI) 1 33499U 09002H 10210.78522928 +.00000069 +00000-0 +19483-4 0 01767 2 33499 098.0649 320.5199 0011131 101.4020 258.8428 14.70822891081211 ANDE CASTOR SPHERE 1 35694U 09038F 10211.72575204 .00255328 00000-0 19404-3 0 6032 2 35694 051.6309 325.3258 0005769 340.9562 019.1759 16.14322512 58065 SUMBANDILA 1 35870U 09049F 10211.68090285 .00000698 00000-0 34549-4 0 9619 2 35870 097.3285 259.6597 0002215 339.1628 176.3057 15.20973722 48069 XIWANG-1 (HOPE-1) 1 36122U 09072B 10211.72478669 -.00000045 00000-0 00000+0 0 5351 2 36122 100.4669 271.7086 0007128 236.8676 123.1756 13.16281380 29941